Preview of NWS' New Version of Forecast
This preview is not operational and should not be used for support decisions.

Regional Weather Roundup (RWR)

Issued by National Weather Service (NWS)

                            
000
ASUS46 KPQR 241010
RWROR 

OREGON REGIONAL WEATHER ROUNDUP
NATIONAL WEATHER SERVICE PORTLAND OR
300 AM PDT MON JUN 24 2019

NOTE: "FAIR" INDICATES FEW OR NO CLOUDS BELOW 12,000 FEET WITH
NO SIGNIFICANT WEATHER AND/OR OBSTRUCTIONS TO VISIBILITY.

ORZ001>013-241100-
NORTHWEST OREGON

  
CITY           SKY/WX    TMP DP  RH WIND       PRES   REMARKS
ASTORIA        CLOUDY    53  50  89 SW5       30.13F                  
TILLAMOOK      PTCLDY    48  45  87 CALM      30.16S                  
NEWPORT        CLEAR     46  43  87 CALM      30.16S                  
PORTLAND       MOCLDY    55  46  71 NW9       30.13S                  
VANCOUVER WA   CLEAR     54  46  74 NW6       30.13S                  
SCAPPOOSE      CLEAR     48  43  82 CALM      30.12S                  
HILLSBORO      CLEAR     44  41  89 CALM      30.13S                  
AURORA         CLOUDY    56  45  66 NE5       30.14S                  
MCMINNVILLE    CLOUDY    54  45  71 NW5       30.13S                  
SALEM          CLOUDY    56  44  64 N7        30.12R                  
CORVALLIS      CLEAR     51  47  86 NW6       30.13S                  
EUGENE         CLEAR     50  46  86 N9        30.11S                  
$$

ORZ021-028-241100-
SOUTHWEST OREGON

  
CITY           SKY/WX    TMP DP  RH WIND       PRES   REMARKS
NORTH BEND     CLEAR     52  49  89 N7        30.14S                  
BROOKINGS      CLEAR     50  47  89 CALM      30.04S                  
ROSEBURG       CLEAR     57  48  72 CALM      30.09R                  
SEXTON SUMMIT  CLEAR     48  43  82 N9        30.09F                  
GRANTS PASS    FAIR      55  46  71 CALM      30.07S                  
MEDFORD        CLEAR     58  43  57 NE3       30.03S                  
$$

ORZ014>016-041-241100-
COLUMBIA GORGE

  
CITY           SKY/WX    TMP DP  RH WIND       PRES   REMARKS
TROUTDALE      PTCLDY    54  47  77 CALM      30.13S                  
HOOD RIVER     PTCLDY    54  45  71 W13G21    30.06S                  
THE DALLES     CLEAR     57  45  64 W17       30.03R                  
$$

ORZ029>031-041-044-049-050-061>064-502-503-505>511-241100-
EASTERN OREGON

  
CITY           SKY/WX    TMP DP  RH WIND       PRES   REMARKS
MADRAS         CLEAR     41  37  87 S5        30.08S                  
REDMOND        CLEAR     45  37  73 S5        30.06S                  
BEND           CLEAR     45  39  81 CALM      30.07S                  
PRINEVILLE     CLEAR     37  36  93 CALM      30.07S                  
KLAMATH FALLS  CLEAR     43  38  82 E3        30.08F                  
LAKEVIEW       CLEAR     39  33  79 NW7       30.10S                  
HERMISTON      CLEAR     57  43  59 SW10      29.99S                  
PENDLETON      CLEAR     50  39  66 VRB3      30.02R                  
JOHN DAY       CLEAR     49  39  67 CALM      30.06S                  
MEACHAM        CLEAR     40  36  86 CALM      30.05R                  
LA GRANDE      CLEAR     48  39  71 SW10      30.04R                  
BAKER CITY     CLEAR     44  38  79 SW5       30.04R                  
BURNS          CLEAR     41  34  76 W5        30.07S                  
ROME             N/A     47  31  53 S8        30.04R                  
ONTARIO        CLEAR     55  39  54 SW3       30.00R                  
$$